Time,TemperatureF,DewpointF,PressureIn,WindDirection,WindDirectionDegrees,WindSpeedMPH,WindSpeedGustMPH,Humidity,HourlyPrecipIn,Conditions,Clouds,dailyrainin,SoftwareType,DateUTC
2013-06-17 00:00:00,66.4,63.4,29.98,WSW,239,0.0,0.0,90,0.00,RA,,0.00,WeatherDisplay:10.37,2013-06-17 04:00:00,
2013-06-17 00:01:00,66.4,63.4,29.98,WSW,239,0.0,0.0,90,0.00,RA,,0.00,WeatherDisplay:10.37,2013-06-17 04:01:00,
2013-06-17 00:02:00,66.4,63.4,29.98,WSW,239,0.0,0.0,90,0.00,RA,,0.00,WeatherDisplay:10.37,2013-06-17 04:02:00,
2013-06-17 00:07:00,66.4,63.4,29.98,WSW,239,0.0,0.0,90,0.00,RA,,0.00,WeatherDisplay:10.37,2013-06-17 04:07:00,
2013-06-17 00:12:00,66.4,63.4,29.98,WSW,239,0.0,0.0,90,0.00,CLR,,0.00,WeatherDisplay:10.37,2013-06-17 04:12:00,
2013-06-17 00:17:00,66.4,63.4,29.98,WSW,239,0.0,0.0,90,0.00,CLR,,0.00,WeatherDisplay:10.37,2013-06-17 04:17:00,
2013-06-17 00:22:00,66.4,63.4,29.98,WSW,239,0.0,0.0,90,0.00,CLR,,0.00,WeatherDisplay:10.37,2013-06-17 04:22:00,
2013-06-17 00:27:00,66.4,63.4,29.98,WSW,239,0.0,0.0,90,0.00,CLR,,0.00,WeatherDisplay:10.37,2013-06-17 04:27:00,
2013-06-17 00:32:00,66.3,63.3,29.98,WSW,239,0.0,0.0,90,0.00,CLR,,0.00,WeatherDisplay:10.37,2013-06-17 04:32:00,
2013-06-17 00:37:00,66.3,63.3,29.98,WSW,239,0.0,0.0,90,0.00,CLR,,0.00,WeatherDisplay:10.37,2013-06-17 04:37:00,
2013-06-17 00:42:00,66.3,63.3,29.98,WSW,239,0.0,0.0,90,0.00,CLR,,0.00,WeatherDisplay:10.37,2013-06-17 04:42:00,
2013-06-17 00:47:00,66.2,63.2,29.98,WSW,239,0.0,0.0,90,0.00,CLR,,0.00,WeatherDisplay:10.37,2013-06-17 04:47:00,
2013-06-17 00:52:00,66.1,63.1,29.98,WSW,239,0.0,0.0,90,0.00,CLR,,0.00,WeatherDisplay:10.37,2013-06-17 04:52:00,
2013-06-17 00:57:00,66.1,63.1,29.98,WSW,239,0.0,0.0,90,0.00,CLR,,0.00,WeatherDisplay:10.37,2013-06-17 04:57:00,
2013-06-17 01:02:00,66.1,63.1,29.98,WSW,239,0.0,0.0,90,0.00,SCT,,0.00,WeatherDisplay:10.37,2013-06-17 05:02:00,
2013-06-17 01:07:00,66.0,63.0,29.98,WSW,239,0.0,0.0,90,0.00,SCT,,0.00,WeatherDisplay:10.37,2013-06-17 05:07:00,
2013-06-17 01:12:00,66.0,63.0,29.98,WSW,239,0.0,0.0,90,0.00,SCT,,0.00,WeatherDisplay:10.37,2013-06-17 05:12:00,
2013-06-17 01:17:00,66.1,63.1,29.98,WSW,239,0.0,0.0,90,0.00,SCT,,0.00,WeatherDisplay:10.37,2013-06-17 05:17:00,
2013-06-17 01:22:00,66.2,63.2,29.99,WSW,239,0.0,0.0,90,0.00,SCT,,0.00,WeatherDisplay:10.37,2013-06-17 05:22:00,
2013-06-17 01:27:00,66.3,63.3,29.99,WSW,239,0.0,0.0,90,0.00,SCT,,0.00,WeatherDisplay:10.37,2013-06-17 05:27:00,
2013-06-17 01:32:00,66.5,63.5,29.99,WSW,239,0.0,0.0,90,0.00,SCT,,0.00,WeatherDisplay:10.37,2013-06-17 05:32:00,
2013-06-17 01:37:00,66.6,63.6,29.99,WSW,239,1.0,0.0,90,0.00,SCT,,0.00,WeatherDisplay:10.37,2013-06-17 05:37:00,
2013-06-17 01:42:00,66.6,63.6,29.99,WSW,239,2.3,2.3,90,0.00,SCT,,0.00,WeatherDisplay:10.37,2013-06-17 05:42:00,
2013-06-17 01:47:00,66.6,63.6,29.99,WSW,239,0.0,0.0,90,0.00,SCT,,0.00,WeatherDisplay:10.37,2013-06-17 05:47:00,
2013-06-17 01:52:00,66.6,63.6,29.99,WSW,239,0.0,0.0,90,0.00,SCT,,0.00,WeatherDisplay:10.37,2013-06-17 05:52:00,
2013-06-17 01:57:00,66.6,63.6,29.99,WSW,239,0.0,0.0,90,0.00,SCT,,0.00,WeatherDisplay:10.37,2013-06-17 05:57:00,
2013-06-17 02:02:00,66.6,63.6,29.99,WSW,239,1.1,0.0,90,0.00,OVC,,0.00,WeatherDisplay:10.37,2013-06-17 06:02:00,
2013-06-17 02:07:00,66.5,63.5,29.99,WSW,239,1.1,0.0,90,0.00,OVC,,0.00,WeatherDisplay:10.37,2013-06-17 06:07:00,
2013-06-17 02:12:00,66.6,63.6,29.99,WSW,239,0.0,0.0,90,0.00,OVC,,0.00,WeatherDisplay:10.37,2013-06-17 06:12:00,
2013-06-17 02:17:00,66.5,63.5,29.98,WSW,239,0.0,0.0,90,0.00,OVC,,0.00,WeatherDisplay:10.37,2013-06-17 06:17:00,
2013-06-17 02:22:00,66.5,63.5,29.99,WSW,239,0.0,0.0,90,0.00,OVC,,0.00,WeatherDisplay:10.37,2013-06-17 06:22:00,
2013-06-17 02:27:00,66.5,63.5,29.98,WSW,239,0.0,0.0,90,0.00,OVC,,0.00,WeatherDisplay:10.37,2013-06-17 06:27:00,
2013-06-17 02:32:00,66.5,63.5,29.98,WSW,239,0.0,0.0,90,0.00,OVC,,0.00,WeatherDisplay:10.37,2013-06-17 06:32:00,
2013-06-17 02:37:00,66.5,63.5,29.99,WSW,239,0.0,0.0,90,0.00,OVC,,0.00,WeatherDisplay:10.37,2013-06-17 06:37:00,
2013-06-17 02:42:00,66.5,63.5,29.99,WSW,239,0.0,0.0,90,0.00,OVC,,0.00,WeatherDisplay:10.37,2013-06-17 06:42:00,
2013-06-17 02:47:00,66.5,63.5,29.98,WSW,239,0.0,0.0,90,0.00,OVC,,0.00,WeatherDisplay:10.37,2013-06-17 06:47:00,
2013-06-17 02:52:00,66.6,63.6,29.98,WSW,239,0.0,0.0,90,0.00,OVC,,0.00,WeatherDisplay:10.37,2013-06-17 06:52:00,
2013-06-17 02:57:00,66.6,63.6,29.98,WSW,239,0.0,0.0,90,0.00,OVC,,0.00,WeatherDisplay:10.37,2013-06-17 06:57:00,
2013-06-17 03:02:00,66.6,63.6,29.98,WSW,239,0.0,0.0,90,0.00,OVC,,0.00,WeatherDisplay:10.37,2013-06-17 07:02:00,
2013-06-17 03:07:00,66.6,63.6,29.98,WSW,239,0.0,0.0,90,0.00,OVC,,0.00,WeatherDisplay:10.37,2013-06-17 07:07:00,
2013-06-17 03:12:00,66.6,63.6,29.97,WSW,239,0.0,0.0,90,0.00,OVC,,0.00,WeatherDisplay:10.37,2013-06-17 07:12:00,
2013-06-17 03:17:00,66.6,63.6,29.97,WSW,239,0.0,0.0,90,0.00,OVC,,0.00,WeatherDisplay:10.37,2013-06-17 07:17:00,
2013-06-17 03:22:00,66.6,63.6,29.97,WSW,239,0.0,0.0,90,0.00,OVC,,0.00,WeatherDisplay:10.37,2013-06-17 07:22:00,
2013-06-17 03:27:00,66.6,63.6,29.97,WSW,239,1.1,0.0,90,0.00,OVC,,0.00,WeatherDisplay:10.37,2013-06-17 07:27:00,
2013-06-17 03:32:00,66.6,63.6,29.97,WSW,239,0.0,0.0,90,0.00,OVC,,0.00,WeatherDisplay:10.37,2013-06-17 07:32:00,
2013-06-17 03:37:00,66.6,63.6,29.97,WSW,239,2.0,2.0,90,0.00,OVC,,0.00,WeatherDisplay:10.37,2013-06-17 07:37:00,
2013-06-17 03:42:00,66.6,63.6,29.97,WSW,239,1.0,0.0,90,0.00,OVC,,0.00,WeatherDisplay:10.37,2013-06-17 07:42:00,
2013-06-17 03:47:00,66.6,63.6,29.97,WSW,239,0.0,0.0,90,0.00,OVC,,0.00,WeatherDisplay:10.37,2013-06-17 07:47:00,
2013-06-17 03:52:00,66.6,63.6,29.97,WSW,239,0.0,0.0,90,0.00,OVC,,0.00,WeatherDisplay:10.37,2013-06-17 07:52:00,
2013-06-17 03:57:00,66.6,63.6,29.97,WSW,239,0.0,0.0,90,0.00,OVC,,0.00,WeatherDisplay:10.37,2013-06-17 07:57:00,
2013-06-17 04:02:00,66.6,63.6,29.97,WSW,239,0.0,0.0,90,0.00,OVC,,0.00,WeatherDisplay:10.37,2013-06-17 08:02:00,
2013-06-17 04:07:00,66.6,63.6,29.97,WSW,239,0.0,0.0,90,0.00,OVC,,0.00,WeatherDisplay:10.37,2013-06-17 08:07:00,
2013-06-17 04:12:00,66.5,63.5,29.97,WSW,239,0.0,0.0,90,0.00,OVC,,0.00,WeatherDisplay:10.37,2013-06-17 08:12:00,
2013-06-17 04:17:00,66.5,63.5,29.96,WSW,239,0.0,0.0,90,0.00,OVC,,0.00,WeatherDisplay:10.37,2013-06-17 08:17:00,
2013-06-17 04:22:00,66.5,63.5,29.96,WSW,239,1.0,0.0,90,0.00,OVC,,0.00,WeatherDisplay:10.37,2013-06-17 08:22:00,
2013-06-17 04:27:00,66.4,63.4,29.96,WSW,239,0.0,0.0,90,0.00,OVC,,0.00,WeatherDisplay:10.37,2013-06-17 08:27:00,
2013-06-17 04:32:00,66.4,63.4,29.97,WSW,239,1.1,0.0,90,0.00,OVC,,0.00,WeatherDisplay:10.37,2013-06-17 08:32:00,
2013-06-17 04:37:00,66.5,63.5,29.97,WSW,239,0.0,0.0,90,0.00,OVC,,0.00,WeatherDisplay:10.37,2013-06-17 08:37:00,
2013-06-17 04:42:00,66.5,63.5,29.97,WSW,239,0.0,0.0,90,0.00,OVC,,0.00,WeatherDisplay:10.37,2013-06-17 08:42:00,
2013-06-17 04:47:00,66.5,63.5,29.97,WSW,239,0.0,0.0,90,0.00,OVC,,0.00,WeatherDisplay:10.37,2013-06-17 08:47:00,
2013-06-17 04:52:00,66.5,63.5,29.97,WSW,239,0.0,0.0,90,0.00,OVC,,0.00,WeatherDisplay:10.37,2013-06-17 08:52:00,
2013-06-17 04:57:00,66.6,63.6,29.97,WSW,239,0.0,0.0,90,0.00,OVC,,0.00,WeatherDisplay:10.37,2013-06-17 08:57:00,
2013-06-17 05:02:00,66.7,63.7,29.97,WSW,239,0.0,0.0,90,0.00,CLR,,0.00,WeatherDisplay:10.37,2013-06-17 09:02:00,
2013-06-17 05:07:00,66.7,63.7,29.97,WSW,239,0.0,0.0,90,0.00,CLR,,0.00,WeatherDisplay:10.37,2013-06-17 09:07:00,
2013-06-17 05:12:00,66.7,63.7,29.97,WSW,239,0.0,0.0,90,0.00,CLR,,0.00,WeatherDisplay:10.37,2013-06-17 09:12:00,
2013-06-17 05:17:00,66.7,63.7,29.97,WSW,239,1.1,0.0,90,0.00,CLR,,0.00,WeatherDisplay:10.37,2013-06-17 09:17:00,
2013-06-17 05:22:00,66.7,63.7,29.97,WSW,239,0.0,0.0,90,0.00,CLR,,0.00,WeatherDisplay:10.37,2013-06-17 09:22:00,
2013-06-17 05:28:00,66.7,63.7,29.97,WSW,239,0.0,0.0,90,0.00,CLR,,0.00,WeatherDisplay:10.37,2013-06-17 09:28:00,
2013-06-17 05:33:00,66.8,63.8,29.97,WSW,239,1.0,0.0,90,0.00,CLR,,0.00,WeatherDisplay:10.37,2013-06-17 09:33:00,
2013-06-17 05:38:00,66.7,63.7,29.97,WSW,239,1.1,1.1,90,0.00,CLR,,0.00,WeatherDisplay:10.37,2013-06-17 09:38:00,
2013-06-17 05:43:00,66.7,63.7,29.96,WSW,239,1.0,1.0,90,0.00,CLR,,0.00,WeatherDisplay:10.37,2013-06-17 09:43:00,
2013-06-17 05:48:00,66.7,63.7,29.97,WSW,239,0.0,0.0,90,0.00,CLR,,0.00,WeatherDisplay:10.37,2013-06-17 09:48:00,
2013-06-17 05:53:00,66.6,63.6,29.97,WSW,239,3.0,3.0,90,0.00,CLR,,0.00,WeatherDisplay:10.37,2013-06-17 09:53:00,
2013-06-17 05:58:00,66.6,63.6,29.97,WSW,239,0.0,0.0,90,0.00,CLR,,0.00,WeatherDisplay:10.37,2013-06-17 09:58:00,
2013-06-17 06:03:00,66.6,63.6,29.97,WSW,239,0.0,0.0,90,0.00,BKN,,0.00,WeatherDisplay:10.37,2013-06-17 10:03:00,
2013-06-17 06:08:00,66.6,63.6,29.97,WSW,239,1.1,0.0,90,0.00,BKN,,0.00,WeatherDisplay:10.37,2013-06-17 10:08:00,
2013-06-17 06:13:00,66.5,63.5,29.97,WSW,239,0.0,0.0,90,0.00,BKN,,0.00,WeatherDisplay:10.37,2013-06-17 10:13:00,
2013-06-17 06:18:00,66.5,63.5,29.97,WSW,239,0.0,0.0,90,0.00,BKN,,0.00,WeatherDisplay:10.37,2013-06-17 10:18:00,
2013-06-17 06:23:00,66.5,63.5,29.97,WSW,239,1.1,1.1,90,0.00,BKN,,0.00,WeatherDisplay:10.37,2013-06-17 10:23:00,
2013-06-17 06:28:00,66.5,63.5,29.97,WSW,239,0.0,0.0,90,0.00,BKN,,0.00,WeatherDisplay:10.37,2013-06-17 10:28:00,
2013-06-17 06:33:00,66.5,63.5,29.97,WSW,239,0.0,0.0,90,0.00,BKN,,0.00,WeatherDisplay:10.37,2013-06-17 10:33:00,
2013-06-17 06:38:00,66.5,63.5,29.97,WSW,239,1.1,0.0,90,0.00,BKN,,0.00,WeatherDisplay:10.37,2013-06-17 10:38:00,
2013-06-17 06:43:00,66.5,63.5,29.98,WSW,239,0.0,0.0,90,0.00,BKN,,0.00,WeatherDisplay:10.37,2013-06-17 10:43:00,
2013-06-17 06:48:00,66.5,63.5,29.97,WSW,239,0.0,0.0,90,0.00,BKN,,0.00,WeatherDisplay:10.37,2013-06-17 10:48:00,
2013-06-17 06:53:00,66.5,63.5,29.97,WSW,239,0.0,0.0,90,0.00,BKN,,0.00,WeatherDisplay:10.37,2013-06-17 10:53:00,
2013-06-17 06:58:00,66.5,63.5,29.97,WSW,239,0.0,0.0,90,0.00,BKN,,0.00,WeatherDisplay:10.37,2013-06-17 10:58:00,
2013-06-17 07:03:00,66.6,63.6,29.97,WSW,239,0.0,0.0,90,0.00,OVC,,0.00,WeatherDisplay:10.37,2013-06-17 11:03:00,
2013-06-17 07:08:00,66.6,63.6,29.97,WSW,239,0.0,0.0,90,0.00,OVC,,0.00,WeatherDisplay:10.37,2013-06-17 11:08:00,
2013-06-17 07:13:00,66.7,63.7,29.98,WSW,239,0.0,0.0,90,0.00,OVC,,0.00,WeatherDisplay:10.37,2013-06-17 11:13:00,
2013-06-17 07:18:00,66.8,63.8,29.98,WSW,239,0.0,0.0,90,0.00,OVC,,0.00,WeatherDisplay:10.37,2013-06-17 11:18:00,
2013-06-17 07:23:00,67.1,64.1,29.98,WSW,239,0.0,0.0,90,0.00,OVC,,0.00,WeatherDisplay:10.37,2013-06-17 11:23:00,
2013-06-17 07:28:00,67.2,64.2,29.98,WSW,239,0.0,0.0,90,0.00,OVC,,0.00,WeatherDisplay:10.37,2013-06-17 11:28:00,
2013-06-17 07:33:00,67.4,64.4,29.98,WSW,239,0.0,0.0,90,0.00,OVC,,0.00,WeatherDisplay:10.37,2013-06-17 11:33:00,
2013-06-17 07:38:00,67.6,64.6,29.98,WSW,239,0.0,0.0,90,0.00,OVC,,0.00,WeatherDisplay:10.37,2013-06-17 11:38:00,
2013-06-17 07:43:00,67.6,64.6,29.97,WSW,239,0.0,0.0,90,0.00,OVC,,0.00,WeatherDisplay:10.37,2013-06-17 11:43:00,
2013-06-17 07:48:00,67.7,64.7,29.97,WSW,239,0.0,0.0,90,0.00,OVC,,0.00,WeatherDisplay:10.37,2013-06-17 11:48:00,
2013-06-17 07:53:00,67.9,64.9,29.97,WSW,239,1.1,0.0,90,0.00,OVC,,0.00,WeatherDisplay:10.37,2013-06-17 11:53:00,
2013-06-17 07:58:00,67.9,64.9,29.97,WSW,239,2.3,0.0,90,0.00,OVC,,0.00,WeatherDisplay:10.37,2013-06-17 11:58:00,
2013-06-17 08:03:00,68.1,65.1,29.97,WSW,239,0.0,0.0,90,0.00,CLR,,0.00,WeatherDisplay:10.37,2013-06-17 12:03:00,
2013-06-17 08:09:00,68.4,65.4,29.97,WSW,239,0.0,0.0,90,0.00,CLR,,0.00,WeatherDisplay:10.37,2013-06-17 12:09:00,
2013-06-17 08:14:00,68.6,65.5,29.97,WSW,239,0.0,0.0,90,0.00,CLR,,0.00,WeatherDisplay:10.37,2013-06-17 12:14:00,
2013-06-17 08:19:00,68.8,65.7,29.98,WSW,239,0.0,0.0,90,0.00,CLR,,0.00,WeatherDisplay:10.37,2013-06-17 12:19:00,
2013-06-17 08:24:00,68.9,65.8,29.98,WSW,239,0.0,0.0,90,0.00,CLR,,0.00,WeatherDisplay:10.37,2013-06-17 12:24:00,
2013-06-17 08:29:00,69.2,66.1,29.98,WSW,239,0.0,0.0,90,0.00,CLR,,0.00,WeatherDisplay:10.37,2013-06-17 12:29:00,
2013-06-17 08:34:00,69.2,66.1,29.98,WSW,239,0.0,0.0,90,0.00,CLR,,0.00,WeatherDisplay:10.37,2013-06-17 12:34:00,
2013-06-17 08:39:00,69.4,66.3,29.98,WSW,239,1.0,0.0,90,0.00,CLR,,0.00,WeatherDisplay:10.37,2013-06-17 12:39:00,
2013-06-17 08:44:00,69.4,66.3,29.98,WSW,239,0.0,0.0,90,0.00,CLR,,0.00,WeatherDisplay:10.37,2013-06-17 12:44:00,
2013-06-17 08:49:00,69.6,66.5,29.98,WSW,239,0.0,0.0,90,0.00,CLR,,0.00,WeatherDisplay:10.37,2013-06-17 12:49:00,
2013-06-17 08:54:00,69.7,66.6,29.98,WSW,239,1.1,1.1,90,0.00,CLR,,0.00,WeatherDisplay:10.37,2013-06-17 12:54:00,
2013-06-17 08:59:00,70.1,67.0,29.99,WSW,239,0.0,0.0,90,0.00,CLR,,0.00,WeatherDisplay:10.37,2013-06-17 12:59:00,
2013-06-17 09:04:00,70.5,67.4,29.99,WSW,239,0.0,0.0,90,0.00,BKN,,0.00,WeatherDisplay:10.37,2013-06-17 13:04:00,
2013-06-17 09:09:00,71.0,67.9,29.99,WSW,239,0.0,0.0,90,0.00,BKN,,0.00,WeatherDisplay:10.37,2013-06-17 13:09:00,
2013-06-17 09:14:00,71.2,68.1,29.99,WSW,239,1.1,0.0,90,0.00,BKN,,0.00,WeatherDisplay:10.37,2013-06-17 13:14:00,
2013-06-17 09:19:00,71.3,68.2,29.99,WSW,239,1.1,1.1,90,0.00,BKN,,0.00,WeatherDisplay:10.37,2013-06-17 13:19:00,
2013-06-17 09:24:00,71.6,68.5,29.99,WSW,239,0.0,0.0,90,0.00,BKN,,0.00,WeatherDisplay:10.37,2013-06-17 13:24:00,
2013-06-17 09:29:00,72.0,68.9,29.99,WSW,239,0.0,0.0,90,0.00,BKN,,0.00,WeatherDisplay:10.37,2013-06-17 13:29:00,
2013-06-17 09:34:00,72.5,69.4,29.99,WSW,239,2.3,2.3,90,0.00,BKN,,0.00,WeatherDisplay:10.37,2013-06-17 13:34:00,
2013-06-17 09:39:00,72.6,69.5,29.99,WSW,239,3.5,3.5,90,0.00,BKN,,0.00,WeatherDisplay:10.37,2013-06-17 13:39:00,
2013-06-17 09:44:00,72.9,69.5,29.99,WSW,239,3.5,3.5,89,0.00,BKN,,0.00,WeatherDisplay:10.37,2013-06-17 13:44:00,
2013-06-17 09:49:00,73.4,69.6,29.99,WSW,239,5.0,5.0,88,0.00,BKN,,0.00,WeatherDisplay:10.37,2013-06-17 13:49:00,
2013-06-17 09:54:00,73.7,69.6,29.99,WSW,239,3.5,3.5,87,0.00,BKN,,0.00,WeatherDisplay:10.37,2013-06-17 13:54:00,
2013-06-17 09:59:00,74.1,69.6,29.99,WSW,239,1.1,1.1,86,0.00,BKN,,0.00,WeatherDisplay:10.37,2013-06-17 13:59:00,
2013-06-17 10:04:00,74.6,70.1,29.98,WSW,240,2.0,2.0,86,0.00,FEW,,0.00,WeatherDisplay:10.37,2013-06-17 14:04:00,
2013-06-17 10:09:00,74.9,70.1,29.99,WSW,246,3.5,3.5,85,0.00,FEW,,0.00,WeatherDisplay:10.37,2013-06-17 14:09:00,
2013-06-17 10:14:00,75.0,69.8,29.99,WSW,251,7.0,7.0,84,0.00,FEW,,0.00,WeatherDisplay:10.37,2013-06-17 14:14:00,
2013-06-17 10:19:00,74.8,69.3,29.98,WSW,245,5.0,5.0,83,0.00,FEW,,0.00,WeatherDisplay:10.37,2013-06-17 14:19:00,
2013-06-17 10:24:00,75.0,69.5,29.98,WSW,245,3.5,3.5,83,0.00,FEW,,0.00,WeatherDisplay:10.37,2013-06-17 14:24:00,
2013-06-17 10:29:00,75.2,69.7,29.98,WSW,238,8.0,8.0,83,0.00,FEW,,0.00,WeatherDisplay:10.37,2013-06-17 14:29:00,
2013-06-17 10:34:00,75.4,69.5,29.98,WSW,237,7.0,7.0,82,0.00,FEW,,0.00,WeatherDisplay:10.37,2013-06-17 14:34:00,
2013-06-17 10:39:00,75.7,69.5,29.98,WSW,237,5.0,5.0,81,0.00,FEW,,0.00,WeatherDisplay:10.37,2013-06-17 14:39:00,
2013-06-17 10:44:00,76.0,70.1,29.99,WSW,237,2.0,2.0,82,0.00,FEW,,0.00,WeatherDisplay:10.37,2013-06-17 14:44:00,
2013-06-17 10:49:00,76.4,70.1,29.99,WSW,240,5.0,5.0,81,0.00,FEW,,0.00,WeatherDisplay:10.37,2013-06-17 14:49:00,
2013-06-17 10:54:00,76.7,70.1,29.98,WSW,238,3.5,3.5,80,0.00,FEW,,0.00,WeatherDisplay:10.37,2013-06-17 14:54:00,
2013-06-17 10:59:00,76.9,70.6,29.98,WSW,239,3.5,3.5,81,0.00,FEW,,0.00,WeatherDisplay:10.37,2013-06-17 14:59:00,
2013-06-17 11:05:00,77.4,70.4,29.98,SW,236,6.9,6.9,79,0.00,BKN,,0.00,WeatherDisplay:10.37,2013-06-17 15:05:00,
2013-06-17 11:10:00,77.8,71.1,29.98,WSW,237,0.0,0.0,80,0.00,BKN,,0.00,WeatherDisplay:10.37,2013-06-17 15:10:00,
2013-06-17 11:15:00,78.0,71.0,29.98,WSW,239,3.5,3.5,79,0.00,BKN,,0.00,WeatherDisplay:10.37,2013-06-17 15:15:00,
2013-06-17 11:20:00,77.9,70.5,29.98,WSW,239,2.3,2.3,78,0.00,BKN,,0.00,WeatherDisplay:10.37,2013-06-17 15:20:00,
2013-06-17 11:25:00,77.9,70.5,29.97,WSW,237,1.1,0.0,78,0.00,BKN,,0.00,WeatherDisplay:10.37,2013-06-17 15:25:00,
2013-06-17 11:30:00,78.1,70.7,29.98,SW,235,8.1,8.1,78,0.00,BKN,,0.00,WeatherDisplay:10.37,2013-06-17 15:30:00,
2013-06-17 11:35:00,78.2,70.4,29.98,SW,236,4.0,4.0,77,0.00,BKN,,0.00,WeatherDisplay:10.37,2013-06-17 15:35:00,
2013-06-17 11:40:00,78.6,70.4,29.98,SW,235,6.0,6.0,76,0.00,BKN,,0.00,WeatherDisplay:10.37,2013-06-17 15:40:00,
2013-06-17 11:45:00,78.7,70.9,29.97,WSW,239,1.1,1.1,77,0.00,BKN,,0.00,WeatherDisplay:10.37,2013-06-17 15:45:00,
2013-06-17 11:50:00,78.9,71.1,29.98,WSW,239,4.0,4.0,77,0.00,BKN,,0.00,WeatherDisplay:10.37,2013-06-17 15:50:00,
2013-06-17 11:55:00,78.9,70.7,29.98,WSW,239,3.5,3.5,76,0.00,BKN,,0.00,WeatherDisplay:10.37,2013-06-17 15:55:00,
2013-06-17 12:00:00,78.7,70.5,29.97,WSW,239,5.0,5.0,76,0.00,BKN,,0.00,WeatherDisplay:10.37,2013-06-17 16:00:00,
2013-06-17 12:05:00,78.9,71.1,29.97,WSW,239,1.1,1.1,77,0.00,BKN,,0.00,WeatherDisplay:10.37,2013-06-17 16:05:00,
2013-06-17 12:10:00,79.4,71.2,29.97,WSW,240,5.0,5.0,76,0.00,BKN,,0.00,WeatherDisplay:10.37,2013-06-17 16:10:00,
2013-06-17 12:15:00,79.9,71.3,29.97,WSW,240,2.3,2.3,75,0.00,BKN,,0.00,WeatherDisplay:10.37,2013-06-17 16:15:00,
2013-06-17 12:20:00,80.4,70.9,29.97,SW,236,7.0,7.0,73,0.00,BKN,,0.00,WeatherDisplay:10.37,2013-06-17 16:20:00,
2013-06-17 12:25:00,80.2,70.8,29.97,SW,236,1.1,1.1,73,0.00,BKN,,0.00,WeatherDisplay:10.37,2013-06-17 16:25:00,
2013-06-17 12:30:00,79.9,71.3,29.97,SW,231,7.0,7.0,75,0.00,BKN,,0.00,WeatherDisplay:10.37,2013-06-17 16:30:00,
2013-06-17 12:35:00,79.6,70.6,29.97,SW,232,3.5,3.5,74,0.00,BKN,,0.00,WeatherDisplay:10.37,2013-06-17 16:35:00,
2013-06-17 12:40:00,80.0,70.6,29.97,SW,233,6.0,6.0,73,0.00,BKN,,0.00,WeatherDisplay:10.37,2013-06-17 16:40:00,
2013-06-17 12:45:00,80.2,70.4,29.97,SW,233,4.6,4.6,72,0.00,BKN,,0.00,WeatherDisplay:10.37,2013-06-17 16:45:00,
2013-06-17 12:50:00,80.1,70.7,29.97,SW,233,3.0,3.0,73,0.00,BKN,,0.00,WeatherDisplay:10.37,2013-06-17 16:50:00,
2013-06-17 12:55:00,80.5,71.0,29.97,WSW,239,1.1,1.1,73,0.00,BKN,,0.00,WeatherDisplay:10.37,2013-06-17 16:55:00,
2013-06-17 13:00:00,81.5,71.6,29.97,WSW,239,3.5,3.5,72,0.00,BKN,,0.00,WeatherDisplay:10.37,2013-06-17 17:00:00,
2013-06-17 13:05:00,82.3,72.0,29.96,WSW,239,2.0,2.0,71,0.00,BKN,,0.00,WeatherDisplay:10.37,2013-06-17 17:05:00,
2013-06-17 13:10:00,82.2,71.0,29.96,WSW,239,3.5,3.5,69,0.00,BKN,,0.00,WeatherDisplay:10.37,2013-06-17 17:10:00,
2013-06-17 13:15:00,82.5,70.9,29.97,WSW,239,5.0,5.0,68,0.00,BKN,,0.00,WeatherDisplay:10.37,2013-06-17 17:15:00,
2013-06-17 13:20:00,82.5,71.3,29.96,WSW,239,1.1,1.1,69,0.00,BKN,,0.00,WeatherDisplay:10.37,2013-06-17 17:20:00,
2013-06-17 13:25:00,83.3,70.8,29.97,WSW,239,7.0,7.0,66,0.00,BKN,,0.00,WeatherDisplay:10.37,2013-06-17 17:25:00,
2013-06-17 13:30:00,83.0,71.8,29.97,WSW,241,0.0,0.0,69,0.00,BKN,,0.00,WeatherDisplay:10.37,2013-06-17 17:30:00,
2013-06-17 13:35:00,84.1,71.5,29.97,SW,236,7.0,7.0,66,0.00,BKN,,0.00,WeatherDisplay:10.37,2013-06-17 17:35:00,
2013-06-17 13:40:00,82.7,70.6,29.97,SW,236,3.5,3.5,67,0.00,BKN,,0.00,WeatherDisplay:10.37,2013-06-17 17:40:00,
2013-06-17 13:45:00,82.3,70.2,29.97,SW,236,4.6,4.6,67,0.00,BKN,,0.00,WeatherDisplay:10.37,2013-06-17 17:45:00,
2013-06-17 13:51:00,83.2,70.7,29.97,SW,236,6.0,6.0,66,0.00,BKN,,0.00,WeatherDisplay:10.37,2013-06-17 17:51:00,
2013-06-17 13:56:00,82.9,70.8,29.97,WSW,238,7.0,7.0,67,0.00,BKN,,0.00,WeatherDisplay:10.37,2013-06-17 17:56:00,
2013-06-17 14:01:00,82.3,70.2,29.96,WSW,239,5.0,5.0,67,0.00,BKN,,0.00,WeatherDisplay:10.37,2013-06-17 18:01:00,
2013-06-17 14:06:00,82.4,70.3,29.96,WSW,240,6.0,6.0,67,0.00,BKN,,0.00,WeatherDisplay:10.37,2013-06-17 18:06:00,
2013-06-17 14:11:00,83.3,71.2,29.96,WSW,240,5.0,5.0,67,0.00,BKN,,0.00,WeatherDisplay:10.37,2013-06-17 18:11:00,
2013-06-17 14:16:00,84.6,72.0,29.95,SW,236,2.3,2.3,66,0.00,BKN,,0.00,WeatherDisplay:10.37,2013-06-17 18:16:00,
2013-06-17 14:21:00,85.0,71.0,29.95,WSW,237,8.1,8.1,63,0.00,BKN,,0.00,WeatherDisplay:10.37,2013-06-17 18:21:00,
2013-06-17 14:26:00,85.2,71.2,29.94,SW,223,2.3,2.3,63,0.00,BKN,,0.00,WeatherDisplay:10.37,2013-06-17 18:26:00,
2013-06-17 14:31:00,84.9,70.4,29.94,SW,227,3.5,3.5,62,0.00,BKN,,0.00,WeatherDisplay:10.37,2013-06-17 18:31:00,
2013-06-17 14:36:00,84.9,71.4,29.94,SW,228,4.0,4.0,64,0.00,BKN,,0.00,WeatherDisplay:10.37,2013-06-17 18:36:00,
2013-06-17 14:41:00,84.2,70.2,29.94,WSW,246,4.6,4.6,63,0.00,BKN,,0.00,WeatherDisplay:10.37,2013-06-17 18:41:00,
2013-06-17 14:46:00,84.5,70.0,29.94,WSW,239,8.0,8.0,62,0.00,BKN,,0.00,WeatherDisplay:10.37,2013-06-17 18:46:00,
2013-06-17 14:51:00,84.0,71.0,29.94,SW,236,3.5,3.5,65,0.00,BKN,,0.00,WeatherDisplay:10.37,2013-06-17 18:51:00,
2013-06-17 14:56:00,84.5,70.5,29.94,WSW,241,1.1,1.1,63,0.00,BKN,,0.00,WeatherDisplay:10.37,2013-06-17 18:56:00,
2013-06-17 15:01:00,85.3,70.8,29.94,WSW,241,1.0,1.0,62,0.00,BKN,,0.00,WeatherDisplay:10.37,2013-06-17 19:01:00,
2013-06-17 15:06:00,85.5,71.0,29.93,WSW,241,3.5,3.5,62,0.00,SCT,,0.00,WeatherDisplay:10.37,2013-06-17 19:06:00,
2013-06-17 15:11:00,85.6,71.1,29.93,WSW,241,3.5,3.5,62,0.00,SCT,,0.00,WeatherDisplay:10.37,2013-06-17 19:11:00,
2013-06-17 15:16:00,85.1,71.1,29.93,WSW,244,3.5,3.5,63,0.00,SCT,,0.00,WeatherDisplay:10.37,2013-06-17 19:16:00,
2013-06-17 15:21:00,85.5,71.5,29.93,WSW,244,6.9,6.9,63,0.00,SCT,,0.00,WeatherDisplay:10.37,2013-06-17 19:21:00,
2013-06-17 15:26:00,85.6,70.6,29.92,WSW,245,2.3,2.3,61,0.00,SCT,,0.00,WeatherDisplay:10.37,2013-06-17 19:26:00,
2013-06-17 15:31:00,85.9,70.9,29.92,WSW,245,2.3,2.3,61,0.00,SCT,,0.00,WeatherDisplay:10.37,2013-06-17 19:31:00,
2013-06-17 15:36:00,86.4,71.4,29.92,WSW,245,2.0,2.0,61,0.00,SCT,,0.00,WeatherDisplay:10.37,2013-06-17 19:36:00,
2013-06-17 15:41:00,86.9,71.3,29.91,WSW,247,4.0,4.0,60,0.00,SCT,,0.00,WeatherDisplay:10.37,2013-06-17 19:41:00,
2013-06-17 15:46:00,86.8,71.2,29.91,WSW,247,0.0,0.0,60,0.00,SCT,,0.00,WeatherDisplay:10.37,2013-06-17 19:46:00,
2013-06-17 15:51:00,85.8,69.8,29.91,WSW,240,7.0,7.0,59,0.00,SCT,,0.00,WeatherDisplay:10.37,2013-06-17 19:51:00,
2013-06-17 15:56:00,85.2,70.2,29.91,WSW,240,3.0,3.0,61,0.00,SCT,,0.00,WeatherDisplay:10.37,2013-06-17 19:56:00,
2013-06-17 16:01:00,85.7,70.7,29.91,WSW,240,1.1,1.1,61,0.00,FEW,,0.00,WeatherDisplay:10.37,2013-06-17 20:01:00,
2013-06-17 16:06:00,86.4,69.9,29.90,WSW,240,3.5,3.5,58,0.00,FEW,,0.00,WeatherDisplay:10.37,2013-06-17 20:06:00,
2013-06-17 16:11:00,86.8,70.8,29.90,West,261,2.3,0.0,59,0.00,FEW,,0.00,WeatherDisplay:10.37,2013-06-17 20:11:00,
2013-06-17 16:16:00,87.3,70.7,29.90,West,261,3.5,3.5,58,0.00,FEW,,0.00,WeatherDisplay:10.37,2013-06-17 20:16:00,
2013-06-17 16:21:00,87.2,70.1,29.90,West,261,3.5,3.5,57,0.00,FEW,,0.00,WeatherDisplay:10.37,2013-06-17 20:21:00,
2013-06-17 16:26:00,86.3,69.3,29.89,West,261,4.0,4.0,57,0.00,FEW,,0.00,WeatherDisplay:10.37,2013-06-17 20:26:00,
2013-06-17 16:31:00,85.7,70.2,29.89,West,261,0.0,0.0,60,0.00,FEW,,0.00,WeatherDisplay:10.37,2013-06-17 20:31:00,
2013-06-17 16:36:00,86.4,70.9,29.89,West,261,1.1,1.1,60,0.00,FEW,,0.00,WeatherDisplay:10.37,2013-06-17 20:36:00,
2013-06-17 16:41:00,86.8,70.2,29.88,West,261,3.5,3.5,58,0.00,FEW,,0.00,WeatherDisplay:10.37,2013-06-17 20:41:00,
2013-06-17 16:46:00,87.1,71.0,29.88,West,261,1.0,1.0,59,0.00,FEW,,0.00,WeatherDisplay:10.37,2013-06-17 20:46:00,
2013-06-17 16:52:00,87.3,71.2,29.88,West,261,1.0,1.0,59,0.00,FEW,,0.00,WeatherDisplay:10.37,2013-06-17 20:52:00,
2013-06-17 16:57:00,87.4,69.8,29.88,West,261,4.0,4.0,56,0.00,FEW,,0.00,WeatherDisplay:10.37,2013-06-17 20:57:00,
2013-06-17 17:02:00,87.2,70.6,29.88,West,263,1.0,0.0,58,0.00,CLR,,0.00,WeatherDisplay:10.37,2013-06-17 21:02:00,
2013-06-17 17:07:00,87.3,69.2,29.88,West,263,2.3,2.3,55,0.00,CLR,,0.00,WeatherDisplay:10.37,2013-06-17 21:07:00,
2013-06-17 17:12:00,87.4,70.3,29.87,West,263,2.3,2.3,57,0.00,CLR,,0.00,WeatherDisplay:10.37,2013-06-17 21:12:00,
2013-06-17 17:17:00,87.2,70.1,29.88,West,263,2.3,2.3,57,0.00,CLR,,0.00,WeatherDisplay:10.37,2013-06-17 21:17:00,
2013-06-17 17:22:00,87.2,70.1,29.87,West,263,3.5,3.5,57,0.00,CLR,,0.00,WeatherDisplay:10.37,2013-06-17 21:22:00,
2013-06-17 17:27:00,87.1,69.5,29.87,West,263,1.1,0.0,56,0.00,CLR,,0.00,WeatherDisplay:10.37,2013-06-17 21:27:00,
2013-06-17 17:32:00,86.9,69.8,29.88,West,263,0.0,0.0,57,0.00,CLR,,0.00,WeatherDisplay:10.37,2013-06-17 21:32:00,
2013-06-17 17:37:00,86.6,70.1,29.88,West,263,1.1,1.1,58,0.00,CLR,,0.00,WeatherDisplay:10.37,2013-06-17 21:37:00,
2013-06-17 17:42:00,85.9,69.4,29.88,West,263,3.0,3.0,58,0.00,CLR,,0.00,WeatherDisplay:10.37,2013-06-17 21:42:00,
2013-06-17 17:47:00,85.1,69.2,29.88,West,263,3.5,3.5,59,0.00,CLR,,0.00,WeatherDisplay:10.37,2013-06-17 21:47:00,
2013-06-17 17:52:00,84.5,69.6,29.88,West,263,2.0,2.0,61,0.00,CLR,,0.00,WeatherDisplay:10.37,2013-06-17 21:52:00,
2013-06-17 17:57:00,84.0,69.6,29.89,West,263,3.5,3.5,62,0.00,CLR,,0.00,WeatherDisplay:10.37,2013-06-17 21:57:00,
2013-06-17 18:02:00,83.7,70.2,29.89,West,263,1.1,1.1,64,0.00,CLR,,0.00,WeatherDisplay:10.37,2013-06-17 22:02:00,
2013-06-17 18:07:00,83.5,70.5,29.90,West,263,1.1,1.1,65,0.00,CLR,,0.00,WeatherDisplay:10.37,2013-06-17 22:07:00,
2013-06-17 18:12:00,83.1,70.6,29.90,West,260,5.0,5.0,66,0.00,CLR,,0.00,WeatherDisplay:10.37,2013-06-17 22:12:00,
2013-06-17 18:17:00,82.6,70.5,29.89,West,261,2.3,2.3,67,0.00,CLR,,0.00,WeatherDisplay:10.37,2013-06-17 22:17:00,
2013-06-17 18:22:00,82.3,70.7,29.89,West,259,6.0,6.0,68,0.00,CLR,,0.00,WeatherDisplay:10.37,2013-06-17 22:22:00,
2013-06-17 18:27:00,82.1,70.5,29.89,West,259,4.0,4.0,68,0.00,CLR,,0.00,WeatherDisplay:10.37,2013-06-17 22:27:00,
2013-06-17 18:32:00,82.0,70.4,29.89,WSW,257,6.0,6.0,68,0.00,CLR,,0.00,WeatherDisplay:10.37,2013-06-17 22:32:00,
2013-06-17 18:37:00,81.7,70.5,29.89,WSW,257,4.0,4.0,69,0.00,CLR,,0.00,WeatherDisplay:10.37,2013-06-17 22:37:00,
2013-06-17 18:42:00,81.6,70.4,29.89,WSW,258,1.1,0.0,69,0.00,CLR,,0.00,WeatherDisplay:10.37,2013-06-17 22:42:00,
2013-06-17 18:47:00,81.8,70.2,29.90,WSW,258,1.1,0.0,68,0.00,CLR,,0.00,WeatherDisplay:10.37,2013-06-17 22:47:00,
2013-06-17 18:52:00,81.9,70.3,29.90,WSW,258,1.1,1.1,68,0.00,CLR,,0.00,WeatherDisplay:10.37,2013-06-17 22:52:00,
2013-06-17 18:57:00,82.0,70.4,29.91,WSW,258,1.1,1.1,68,0.00,CLR,,0.00,WeatherDisplay:10.37,2013-06-17 22:57:00,
2013-06-17 19:02:00,80.0,62.9,29.91,ESE,114,4.0,4.0,56,0.00,FEW,,0.00,WeatherDisplay:10.37,2013-06-17 23:02:00,
2013-06-17 19:07:00,78.7,62.7,29.90,ENE,68,4.0,4.0,58,0.00,FEW,,0.00,WeatherDisplay:10.37,2013-06-17 23:07:00,
2013-06-17 19:12:00,78.6,63.6,29.91,ENE,71,3.5,3.5,60,0.00,FEW,,0.00,WeatherDisplay:10.37,2013-06-17 23:12:00,
2013-06-17 19:17:00,78.6,57.8,29.90,ENE,77,6.0,6.0,49,0.00,FEW,,0.00,WeatherDisplay:10.37,2013-06-17 23:17:00,
2013-06-17 19:22:00,78.6,57.3,29.90,ENE,77,6.0,6.0,48,0.00,FEW,,0.00,WeatherDisplay:10.37,2013-06-17 23:22:00,
2013-06-17 19:27:00,77.9,57.8,29.90,ENE,72,1.1,0.0,50,0.00,FEW,,0.00,WeatherDisplay:10.37,2013-06-17 23:27:00,
2013-06-17 19:33:00,77.4,60.0,29.90,ENE,72,2.0,2.0,55,0.00,FEW,,0.00,WeatherDisplay:10.37,2013-06-17 23:33:00,
2013-06-17 19:38:00,76.9,64.7,29.90,ENE,72,2.3,2.3,66,0.00,FEW,,0.00,WeatherDisplay:10.37,2013-06-17 23:38:00,
2013-06-17 19:43:00,76.6,67.3,29.90,West,275,5.0,5.0,73,0.00,FEW,,0.00,WeatherDisplay:10.37,2013-06-17 23:43:00,
2013-06-17 19:48:00,76.1,68.4,29.91,West,278,3.5,3.5,77,0.01,RA,,0.01,WeatherDisplay:10.37,2013-06-17 23:48:00,
2013-06-17 19:53:00,75.4,68.4,29.92,WNW,290,4.0,4.0,79,0.01,RA,,0.01,WeatherDisplay:10.37,2013-06-17 23:53:00,
2013-06-17 19:58:00,75.0,68.8,29.92,NE,35,5.0,5.0,81,0.01,FEW,,0.01,WeatherDisplay:10.37,2013-06-17 23:58:00,
2013-06-17 20:03:00,73.7,66.4,29.94,NNW,328,12.0,12.0,78,0.01,-RA,,0.01,WeatherDisplay:10.37,2013-06-18 00:03:00,
2013-06-17 20:08:00,72.0,64.8,29.94,North,358,10.4,10.4,78,0.01,-RA,,0.01,WeatherDisplay:10.37,2013-06-18 00:08:00,
2013-06-17 20:13:00,70.6,64.1,29.93,ENE,60,8.1,8.1,80,0.03,-RA,,0.03,WeatherDisplay:10.37,2013-06-18 00:13:00,
2013-06-17 20:18:00,69.5,63.1,29.93,NNE,25,8.1,8.1,80,0.04,-RA,,0.04,WeatherDisplay:10.37,2013-06-18 00:18:00,
2013-06-17 20:23:00,68.8,60.6,29.93,NNE,25,12.0,12.0,75,0.09,-RA,,0.09,WeatherDisplay:10.37,2013-06-18 00:23:00,
2013-06-17 20:28:00,68.5,60.6,29.92,NE,49,5.0,5.0,76,0.11,-RA,,0.11,WeatherDisplay:10.37,2013-06-18 00:28:00,
2013-06-17 20:33:00,68.1,61.0,29.91,NE,46,4.0,4.0,78,0.11,-RA,,0.11,WeatherDisplay:10.37,2013-06-18 00:33:00,
2013-06-17 20:38:00,67.8,60.7,29.90,NE,37,4.0,4.0,78,0.11,-RA,,0.11,WeatherDisplay:10.37,2013-06-18 00:38:00,
2013-06-17 20:43:00,68.5,61.0,29.90,North,7,4.0,4.0,77,0.11,-RA,,0.11,WeatherDisplay:10.37,2013-06-18 00:43:00,
2013-06-17 20:48:00,68.4,60.9,29.89,WSW,241,5.0,5.0,77,0.10,-RA,,0.11,WeatherDisplay:10.37,2013-06-18 00:48:00,
2013-06-17 20:53:00,68.5,60.6,29.89,WSW,241,1.0,1.0,76,0.10,-RA,,0.11,WeatherDisplay:10.37,2013-06-18 00:53:00,
2013-06-17 20:58:00,68.7,60.5,29.90,WSW,241,3.5,3.5,75,0.10,-RA,,0.11,WeatherDisplay:10.37,2013-06-18 00:58:00,
2013-06-17 21:03:00,69.3,60.3,29.89,WSW,241,4.0,4.0,73,0.10,-RA,,0.11,WeatherDisplay:10.37,2013-06-18 01:03:00,
2013-06-17 21:08:00,69.5,60.8,29.89,WSW,241,1.1,0.0,74,0.10,-RA,,0.11,WeatherDisplay:10.37,2013-06-18 01:08:00,
2013-06-17 21:13:00,69.4,61.9,29.90,WSW,241,3.5,3.5,77,0.08,-RA,,0.11,WeatherDisplay:10.37,2013-06-18 01:13:00,
2013-06-17 21:18:00,69.1,61.9,29.90,WSW,241,0.0,0.0,78,0.06,-RA,,0.11,WeatherDisplay:10.37,2013-06-18 01:18:00,
2013-06-17 21:23:00,68.8,62.4,29.90,WSW,241,0.0,0.0,80,0.02,-RA,,0.11,WeatherDisplay:10.37,2013-06-18 01:23:00,
2013-06-17 21:28:00,68.5,62.1,29.92,WNW,292,5.0,5.0,80,0.00,-RA,,0.11,WeatherDisplay:10.37,2013-06-18 01:28:00,
2013-06-17 21:33:00,68.1,61.0,29.92,NNE,21,5.0,5.0,78,0.00,-RA,,0.11,WeatherDisplay:10.37,2013-06-18 01:33:00,
2013-06-17 21:38:00,67.7,60.6,29.92,NNW,338,5.0,5.0,78,0.00,-RA,,0.11,WeatherDisplay:10.37,2013-06-18 01:38:00,
2013-06-17 21:43:00,67.3,60.6,29.92,NNW,348,4.0,4.0,79,0.00,-RA,,0.11,WeatherDisplay:10.37,2013-06-18 01:43:00,
2013-06-17 21:48:00,67.1,60.4,29.93,NNW,347,4.6,4.6,79,0.01,-RA,,0.12,WeatherDisplay:10.37,2013-06-18 01:48:00,
2013-06-17 21:53:00,67.1,60.4,29.94,NNW,344,4.0,4.0,79,0.01,-RA,,0.12,WeatherDisplay:10.37,2013-06-18 01:53:00,
2013-06-17 21:58:00,67.3,60.9,29.94,NNW,337,4.0,4.0,80,0.01,-RA,,0.12,WeatherDisplay:10.37,2013-06-18 01:58:00,
2013-06-17 22:03:00,67.8,61.8,29.95,West,270,6.9,6.9,81,0.01,-RA,,0.12,WeatherDisplay:10.37,2013-06-18 02:03:00,
2013-06-17 22:08:00,67.9,61.9,29.95,West,274,4.0,4.0,81,0.01,-RA,,0.12,WeatherDisplay:10.37,2013-06-18 02:08:00,
2013-06-17 22:13:00,67.9,62.2,29.96,West,261,4.0,4.0,82,0.01,-RA,,0.12,WeatherDisplay:10.37,2013-06-18 02:13:00,
2013-06-17 22:18:00,67.7,62.0,29.97,WSW,248,6.0,6.0,82,0.01,-RA,,0.12,WeatherDisplay:10.37,2013-06-18 02:18:00,
2013-06-17 22:23:00,67.6,62.3,29.97,SW,232,10.0,10.0,83,0.01,-RA,,0.12,WeatherDisplay:10.37,2013-06-18 02:23:00,
2013-06-17 22:28:00,67.8,62.4,29.98,WSW,243,9.2,9.2,83,0.01,-RA,,0.12,WeatherDisplay:10.37,2013-06-18 02:28:00,
2013-06-17 22:34:00,68.0,63.3,29.97,West,277,6.0,6.0,85,0.01,-RA,,0.12,WeatherDisplay:10.37,2013-06-18 02:34:00,
2013-06-17 22:39:00,68.1,63.1,29.97,WSW,253,8.1,8.1,84,0.01,-RA,,0.12,WeatherDisplay:10.37,2013-06-18 02:39:00,
2013-06-17 22:44:00,68.1,63.4,29.98,West,259,3.5,3.5,85,0.01,-RA,,0.12,WeatherDisplay:10.37,2013-06-18 02:44:00,
2013-06-17 22:49:00,68.1,63.4,29.99,WSW,257,5.0,5.0,85,0.00,-RA,,0.12,WeatherDisplay:10.37,2013-06-18 02:49:00,
2013-06-17 22:54:00,68.2,63.9,29.99,WSW,256,2.3,2.3,86,0.00,-RA,,0.12,WeatherDisplay:10.37,2013-06-18 02:54:00,
2013-06-17 22:59:00,68.0,63.7,29.98,WSW,252,5.0,5.0,86,0.00,-RA,,0.13,WeatherDisplay:10.37,2013-06-18 02:59:00,
2013-06-17 23:04:00,67.9,63.6,29.98,WSW,252,1.1,1.1,86,0.01,-RA,,0.13,WeatherDisplay:10.37,2013-06-18 03:04:00,
2013-06-17 23:09:00,67.9,63.9,29.97,WSW,252,1.1,1.1,87,0.01,-RA,,0.13,WeatherDisplay:10.37,2013-06-18 03:09:00,
2013-06-17 23:14:00,67.7,63.7,29.97,WSW,252,1.1,1.1,87,0.01,-RA,,0.13,WeatherDisplay:10.37,2013-06-18 03:14:00,
2013-06-17 23:19:00,67.6,63.6,29.97,WSW,252,1.0,1.0,87,0.01,-RA,,0.13,WeatherDisplay:10.37,2013-06-18 03:19:00,
2013-06-17 23:24:00,67.5,63.5,29.98,WSW,252,0.0,0.0,87,0.01,-RA,,0.13,WeatherDisplay:10.37,2013-06-18 03:24:00,
2013-06-17 23:29:00,67.5,63.5,29.98,WSW,252,2.3,2.3,87,0.01,-RA,,0.13,WeatherDisplay:10.37,2013-06-18 03:29:00,
2013-06-17 23:34:00,67.5,63.5,29.97,WSW,252,0.0,0.0,87,0.01,-RA,,0.13,WeatherDisplay:10.37,2013-06-18 03:34:00,
2013-06-17 23:39:00,67.5,63.5,29.96,WSW,252,0.0,0.0,87,0.01,-RA,,0.13,WeatherDisplay:10.37,2013-06-18 03:39:00,
2013-06-17 23:44:00,67.4,63.4,29.95,WSW,252,0.0,0.0,87,0.01,-RA,,0.13,WeatherDisplay:10.37,2013-06-18 03:44:00,
2013-06-17 23:49:00,67.5,63.8,29.95,WSW,252,0.0,0.0,88,0.01,-RA,,0.13,WeatherDisplay:10.37,2013-06-18 03:49:00,
2013-06-17 23:54:00,67.5,63.8,29.95,WSW,252,4.0,4.0,88,0.01,-RA,,0.13,WeatherDisplay:10.37,2013-06-18 03:54:00,
2013-06-17 23:59:00,67.6,63.9,29.95,WSW,257,4.0,4.0,88,0.00,-RA,,0.13,WeatherDisplay:10.37,2013-06-18 03:59:00,